Regional Weather Roundup
Issued by NWS

Home | Current Version | Previous Version | Text Only | Print | Product List | Glossary Off
Versions: 1 2 3 4 5 6 7 8 9 10 11 12 13 14 15 16 17 18 19 20 21 22 23 24 25 26 27 28 29 30 31 32 33 34 35 36 37 38 39 40 41 42 43 44 45 46 47 48 49 50

000
ASUS45 KABQ 232301
RWRNM
NEW MEXICO REGIONAL WEATHER ROUNDUP
NATIONAL WEATHER SERVICE ALBUQUERQUE NM
500 PM MDT FRI JUN 23 2017

NOTE: "FAIR" MEANS FEW OR NO CLOUDS BELOW 12,000 FEET AGL WITH NO
       SIGNIFICANT WEATHER OR OBSTRUCTIONS TO VISION.

      THIS PRODUCT IS RELEASED AS TWO VERSIONS.  ONE VERSION NEAR
      THE TOP OF THE HOUR CONTAINING PRELIMINARY DATA FROM ALBUQUERQUE
      AND OTHER STATIONS.  A FINAL VERSION WITH ADDITIONAL DATA IS
      ISSUED ABOUT 10 MINUTES AFTER THE HOUR.

NMZ501-503-504-510>518-240000-
NORTHWEST PLATEAU/NORTHCENTRAL MOUNTAINS

CITY           SKY/WX    TMP DP  RH WIND       PRES   REMARKS
FARMINGTON     FAIR      94  21   7 NW23G32   30.02F
LOS ALAMOS     FAIR      90  15   6 S10G22    30.17S
SANTA FE       FAIR      89  52  28 SE28G43   30.10S
TAOS           FAIR      91  28  10 W10G24    30.14S
ANGEL FIRE     FAIR      69  50  50 SE17G25   30.33R

$$
NMZ402-403-502-505>509-240000-
WESTCENTRAL MOUNTAINS/SOUTHWEST MOUNTAINS

CITY           SKY/WX    TMP DP  RH WIND       PRES   REMARKS
GALLUP         FAIR      93  25   8 NW9G18    30.14F
GRANTS         FAIR      92  24   8 N7        30.14F
SILVER CITY    FAIR      97  29   9 NW6       30.03F

$$
NMZ407-409-411-412-240000-
SOUTHERN DESERTS

CITY           SKY/WX    TMP DP  RH WIND       PRES   REMARKS
DEMING         FAIR     105  23   5 W9        29.90F HX  97
LAS CRUCES     FAIR     106  24   5 CALM      29.91F HX  98
HOLLOMAN AFB   FAIR     106  23   5 W10G18    29.87F HX  98
ALAMOGORDO     FAIR     106  25   6 W20G25    29.87F HX  98
T OR C         FAIR     102  23   6 VRB3      29.94F HX  95

$$
NMZ519>523-240000-
CENTRAL VALLEYS/CENTRAL HIGHLANDS

CITY           SKY/WX    TMP DP  RH WIND       PRES   REMARKS
ALBUQUERQUE    PTSUNNY  100  15   4 W16       30.01F
DOUBLE EAGLE   PTSUNNY   97  27   8 W6G23     30.07F
MORIARTY ARPT  FAIR      88  52  28 E23G30    30.14S
CLINES CORNERS FAIR      76  52  43 SE22G32   30.23S
BELEN          FAIR      99  24   7 E6        29.99F
SOCORRO        FAIR     102  26   7 N9G18     29.96F

$$
NMZ524>526-539-540-240000-
SOUTHCENTRAL MOUNTAINS

CITY           SKY/WX    TMP DP  RH WIND       PRES   REMARKS
RUIDOSO        FAIR      72  63  73 E12G25    30.22S

$$
NMZ527>531-240000-
NORTHEAST HIGHLANDS/NORTHEAST PLAINS

CITY           SKY/WX    TMP DP  RH WIND       PRES   REMARKS
LAS VEGAS      FAIR      75  50  41 SE15      30.25F
RATON          PTSUNNY   73  48  41 E6        30.21S
CLAYTON        FAIR      72  49  44 E12G25    30.18F

$$
NMZ532>537-240000-
EASTCENTRAL PLAINS

CITY           SKY/WX    TMP DP  RH WIND       PRES   REMARKS
SANTA ROSA     FAIR      82  52  34 E15G23    30.10F
TUCUMCARI      FAIR      84  53  34 E18       30.06F
CANNON AFB     FAIR      82  59  45 NE18      30.07F
CLOVIS AIRPORT FAIR      82  60  47 NE23G30   30.07F

$$
NMZ028-029-538-240000-
SOUTHEAST PLAINS

CITY           SKY/WX    TMP DP  RH WIND       PRES   REMARKS
ROSWELL        FAIR      94  59  31 NE24G32   29.93R
ARTESIA        FAIR      99  61  28 NE24G39   29.88R HX  99
CARLSBAD         N/A    100  53  20 NE29G36   29.82R HX  98
HOBBS          SUNNY     81  52  36 E14       29.92F


$$



USA.gov is the U.S. government's official web portal to all federal, state and local government web resources and services.